Regional Weather Roundup
Issued by NWS Newport/Morehead, NC

Current Version | Previous Version | Text Only | Print | Product List | Glossary On
Versions: 1 2 3 4 5 6 7 8 9 10 11 12 13 14 15 16 17 18 19 20 21 22 23 24 25 26 27 28 29 30 31 32 33 34 35 36 37 38 39 40 41 42 43 44 45 46 47 48 49 50
000 ASUS42 KMHX 032125 RWRMHX WEATHER ROUNDUP FOR EASTERN NORTH CAROLINA NATIONAL WEATHER SERVICE NEWPORT/MOREHEAD CITY NC 500 PM EDT MON AUG 03 2015 NOTE: "FAIR" INDICATES FEW OR NO CLOUDS BELOW 12,000 FEET WITH NO SIGNIFICANT WEATHER AND/OR OBSTRUCTIONS TO VISIBILITY NCZ015>017-031-032-045>047-102-103-032200- NORTH COAST CITY SKY/WX TMP DP RH WIND PRES REMARKS EDENTON N/A 85 73 66 S16 29.91S ELIZABETH CITY MOSUNNY 84 73 69 S16 29.91S KITTY HAWK CLOUDY 81 70 70 S8 29.92F MANTEO CLOUDY 80 72 74 SW22G28 29.93F $$ NCZ045>047-081-094-103-104-032200- CENTRAL COAST CITY SKY/WX TMP DP RH WIND PRES REMARKS FRISCO CLOUDY 75 72 90 S13 29.98S SWANQUARTER N/A 79 N/A N/A S15G30 29.91S $$ NCZ095-097-098-100-101-032200- SOUTHERN COAST CITY SKY/WX TMP DP RH WIND PRES REMARKS BEAUFORT LGT RAIN 76 74 93 S10 29.98S CEDAR ISLAND N/A 75 N/A N/A S6G18 30.00S JACKSONVILLE CLOUDY 76 70 82 S6 29.96S PINEY ISLAND CLOUDY N/A N/A N/A S9 29.97R WILMINGTON CLOUDY 75 71 87 S6 29.96F $$ NCZ011>013-027>030-043-044-078>080-089-090>093-098-032200- COASTAL PLAIN CITY SKY/WX TMP DP RH WIND PRES REMARKS AHOSKIE MOSUNNY 91 65 41 S7 29.88S CLINTON MOSUNNY 90 73 58 S8 29.91F ELIZABETHTOWN MOSUNNY 87 73 61 S12G17 29.93F GOLDSBORO MOSUNNY 91 74 57 S10 29.88R HX 101 GREENVILLE MOSUNNY 91 73 55 SW10G23 29.92S HX 100 HAVELOCK CLOUDY 77 73 87 SW7 29.98R KENANSVILLE MOSUNNY N/A N/A N/A S6 29.93F KINSTON MOSUNNY 90 73 58 S16G22 29.92F NEW BERN CLOUDY 79 70 74 SW10 29.97R RICHLANDS PTSUNNY 82 70 65 S13 29.94F ROCKY MOUNT MOSUNNY 96 62 32 S9 29.89S WASHINGTON MOSUNNY 84 75 74 S9 29.92S WHITEVILLE CLOUDY 81 74 78 SE6 29.95S $$ AMZ130-135-150-152-154-156-158-170-250-252-270-ANZ085-086-088-633-658-670-032200- MARINE OBSERVATIONS STATION/POSITION TIME TEMP WIND PRES WAVE SWELL AIR SEA DIR/SP/G HT/PER HT/PER (UTC) (F) (DEG/KT/KT) (MB) (FT/S) (FT/S) CHESAPEAKE LIGHT 2100 81 180/ 23/ 24 1011.8 64 E VA BEACH 2050 79 82 200/ 21/ 25 1012.9 5/ 5 2/11 DUCK 2100 80 68 190/ 19/ 22 1012.0 2 E DUCK 2011 76 N/A 2/12 2/12 OREGON INLET 2100 78 82 200/ 20/ 23 1013.9 13E OREGON INLT 2100 81 N/A 4/ 5 2/12 HATTERAS CG 2100 75 80 180/ 6/ 12 1014.8 DIAMOND BUOY 2050 77 84 190/ 14/ 17 1015.3 4/ 6 2/11 CAPE LOOKOUT 2100 75 190/ 14/ 16 1015.1 BEAUFORT LAB 2100 77 80 190/ 12/ 16 1014.0 30 SE NEW RVR IN NOT AVBL 27 SE WRIGHTSVLE 2100 78 82 210/ 10/ 12 N/A 5 SE WRIGHTSVLE 2008 80 82 240/ 8/ 10 1015.4 225 S CAPE HAT 2050 83 81 190/ 12/ 14 1016.9 5/ 6 3/ 6 41 SE CHARLESTON 2050 84 83 160/ 10/ 12 1013.7 5/ 6 5/ 6 $$

USA.gov is the U.S. government's official web portal to all federal, state and local government web resources and services.